COSMOS 2251 DEB, 34792

Orbit data source: Space-Track

COSMOS 2251 DEB, 34792 is space debris in LEO originally from a launch on Wed, 16 Jun 1993 UTC launched from the Plesetsk Missile And Space Complex (PKMTR). The debris from Iridium 33, an American commercial communications satellite, has been tracked extensively since its accidental collision with the defunct Russian satellite Cosmos 2251 in 2009. This event, occurring at high speed in low Earth orbit (LEO), generated thousands of pieces of space debris, significantly increasing the risk of further collisions. The Iridium 33 debris cloud has impacted space traffic management and orbital debris mitigation strategies, making it a subject of ongoing study in space situational awareness.

Loading next visibility...
Identifier
34792, 1993-036AAV
Orbit
LEO
Country
Flag of CISCIS
Related business
Manufacturer
Unknown
Mission
Spacecraft
Bus & Motor
Unknown
Mass
Unknown
Launch date (UTC)
1993-06-16 (33 years ago)
Launch vehicle
Unknown
Launch site
Plesetsk Missile And Space Complex (PKMTR)
Object type
Payload
Rocket body
Debris
Shape & HBR
Unknown shape, 0.1 m
Radar Cross Section
Medium (>0.1 m² and <1 m²)

Expand to show TLE details & history
Last TLE update: 17 hours ago

TLE from 17 hours ago
0 COSMOS 2251 DEB
1 34792U 93036AAV 26236.90852038  .00002670  00000-0  58916-3 0  9997
2 34792  74.0168  44.5556 0012266  77.4336  72.7628 14.57801457913668
Epoch: 2026-08-24T21:48Z
TLE epoch observation values (Epoch: 2026-08-24T21:48:16.160Z)
Latitude
28.46732°
Longitude
-84.58134°
Altitude
700.936 km
Speed
7.51 km/s
True Right ascension
14h 22m 40s
True Declination
28° 19' 20"
Sunlit
Object was in daylight at epoch
Visualization orbit readout
Latitude
Unknown
Longitude
Unknown
Altitude
Unknown
Speed
Unknown
Apparent Right ascension
Unknown
Apparent Declination
Unknown
Sunlit
N/A
Visualization observer readout
Local Sidereal Time
06:14:25
Azimuth
Unknown
Elevation
Unknown
Doppler factor
Unknown
Orbital elements
Apogee altitude
706.563 km
Perigee altitude
689.204 km
Semi-major axis
7,076.02 km
Eccentricity
0.00123
Inclination
74.0168°
RAAN
44.5556°
Arg. of periapsis
77.4336°
True anomaly
72.89711°
Mean anomaly
72.7628°
Eccentric anomaly
72.82995°
Mean motion
3.64636 °/min
Orbital period
98.73 mins
BSTAR
0.00058916

Documentation

Showing up to 5 results
|